Starlink 11574

operational
NORAD ID: 63010 Int'l Des: 2025-032 Owner: SPXS Country: US Constellation: starlink
LEOCIRCULAR

Über Starlink 11574

Beschreibung wird geladen...

Live-Position

3D-Globus wird geladen...

Nächste Überflüge

Höhenverlauf

Altitude vs Time

uPlot chart will show altitude changes over time

Zweizeiliger Elementsatz

1 63010U 25032F 25305.13498476 .00247196 00000-0 18657-2 0 9997
2 63010 42.9996 250.3902 0001220 243.2433 116.8310 15.70936057 41994
Epoch: 1. Nov. 2025 • Age: 33 hours

Aktueller Status

Höhe 354.1 km
Geschwindigkeit 7.70 km/s
Subsatellitenpunkt -1.88°S, 158.63°W
Startdatum 15. Feb. 2025
Alter 0.7 years
Typ internet

Technische Details

Klassifizierung Payload
Masse 960.00 kg
Trockenmasse 910.00 kg
Gesamtmasse 960.00 kg
Länge 0.30 m
Durchmesser 4.10 m
Spannweite 29.00 m
Form Box + pan
Hersteller SPXS
Bus-Typ Starlink V2MD
Phasenstatus In Orbit
Besitzer/Staat SPXS/US

Große Konstellationen

Loading constellations...